Regional Weather Roundup
Issued by NWS

Home | Current Version | Previous Version | Text Only | Print | Product List | Glossary On
Versions: 1 2 3 4 5 6 7 8 9 10 11 12 13 14 15 16 17 18 19 20 21 22 23 24 25 26 27
000
ASUS45 KBOU 101010
RWRCO

WEATHER ROUNDUP FOR COLORADO
NATIONAL WEATHER SERVICE DENVER/BOULDER CO
300 AM MST SUN DEC 10 2017

NOTE: "FAIR" INDICATES FEW OR NO CLOUDS BELOW 12000 FEET WITH NO
SIGNIFICANT WEATHER AND/OR OBSTRUCTIONS TO VISIBILITY.

COZ001>005-013-030-031-101100-
...NORTHWEST COLORADO...

CITY           SKY/WX    TMP DP  RH WIND       PRES   REMARKS
CRAIG          FAIR       5   0  79 CALM      30.59S
HAYDEN         FAIR      18  10  71 E13       30.59S WCI   5
MEEKER         FAIR      13   4  67 NE6       30.58S WCI   4
RABBIT EARS PA FAIR      19   7  58 W8        30.57R WCI   9
STEAMBOAT SPGS FAIR      13   9  83 CALM      30.59R
WALDEN         FAIR       7  -2  66 SE5       30.57S WCI  -2
$$

COZ006>008-011-101100-
...WEST CENTRAL VALLEYS...

CITY           SKY/WX    TMP DP  RH WIND       PRES   REMARKS
GRAND JUNCTION FAIR      19   5  54 CALM      30.57S
MONTROSE       FAIR      16   1  51 SE8       30.60S WCI   5
EAGLE          FAIR       7   3  84 S3        30.68R
RIFLE          FAIR      14   5  67 CALM      30.61S
DELTA          FAIR      18   0  45 CALM      30.60S
NUCLA          FAIR      21  -6  30 E6        30.59S WCI  14
$$

COZ017>023-064>068-101100-
...SOUTHWEST COLORADO...

CITY           SKY/WX    TMP DP  RH WIND       PRES   REMARKS
DURANGO        FAIR      13   2  61 NE5       30.51S WCI   5
CORTEZ         FAIR      10  -4  53 NE6       30.52S WCI   0
PAGOSA SPRINGS FAIR      19   1  45 CALM      30.52S
TELLURIDE      FAIR      23 -11  22 SE7       30.59S WCI  15
WOLF CREEK PAS FAIR      27 -24  10 NW5       30.65R WCI  21
$$

COZ009-010-012-014-032>034-037-058>063-101100-
...CENTRAL COLORADO...

CITY           SKY/WX    TMP DP  RH WIND       PRES   REMARKS
ASPEN          FAIR      16   1  51 S7        30.58R WCI   6
BUENA VISTA    FAIR      25  -2  30 NW10G16   30.53R WCI  15
COPPER MTN     NOT AVBL
BERTHOUD PASS  FAIR      14   3  62 NW9G18    30.58R WCI   2
COTTONWOOD PAS FAIR      34 -22   8 SW7       30.54R WCI  28
GUNNISON       FAIR       2  -4  76 CALM      30.63R
KREMMLING      HAZE       3   0  85 CALM      30.67S VSB 1/2
LEADVILLE      FAIR       4  -9  55 NE7       30.55S WCI  -8
MONARCH PASS   FAIR      25 -18  14 W15G21    30.69S WCI  12
SALIDA         FAIR      24  -1  34 CALM      30.61S
SUNLIGHT       FAIR      23  -9  23 W7        30.63S WCI  15
WILKERSON PASS FAIR      30 -15  13 N12G17    30.57S WCI  21
$$

COZ069>075-101100-
...SAN LUIS VALLEY/SANGRE DE CRISTO MOUNTAINS...

CITY           SKY/WX    TMP DP  RH WIND       PRES   REMARKS
ALAMOSA        FAIR       5   0  79 CALM      30.53S
DEL NORTE      FAIR      25 -12  19 W16       30.54R WCI  13
LA VETA PASS   FAIR      27  -4  26 SW17        N/A  WCI  14
SAGUACHE       FAIR      27  -8  22 NW9       30.54R WCI  17
$$

COZ035-036-038>040-101100-
...NORTHERN COLORADO FRONT RANGE...

CITY           SKY/WX    TMP DP  RH WIND       PRES   REMARKS
DENVER INTL AP FAIR      35  -3  19 SW15      30.39S WCI  25
DMNS CITY PARK NOT AVBL
AURORA         CLEAR     32  -2  22 S9        30.41S WCI  25
FRONT RANGE AP FAIR      40  -3  16 SW14      30.40S
ERIE MUNI ARPT FAIR      19  10  66 SW5       30.44F WCI  13
BOULDER MUN AP FAIR      39   0  19 W6        30.38S
CENTENNIAL     FAIR      32   0  25 S5        30.41S WCI  27
BROOMFIELD     FAIR      37  -2  18 W3        30.40S
FORT COLLINS   FAIR      33   2  26 CALM      30.38F
LONGMONT       FAIR      25  11  56 SW3       30.40F
$$

COZ041-046-047-076>085-087-088-101100-
...PIKES PEAK/PALMER DIVIDE AND SOUTHERN FOOTHILLS...

CITY           SKY/WX    TMP DP  RH WIND       PRES   REMARKS
COLO. SPRINGS  FAIR      27  -3  27 N12       30.44S WCI  17
A. F. ACADEMY  FAIR      21  -4  33 N10       30.43F WCI  10
SCHRIEVER AFB  FAIR      36  -9  14 NW3       30.44S
CHEYENNE MTN   FAIR      39  -8  13 CALM      30.39S
ELLICOTT         N/A    N/A N/A N/A CALM      30.42S
FALCON         FAIR      28  -6  22 NW6       30.44F WCI  22
FORT CARSON    FAIR      29  -2  25 NW9       30.41F WCI  21
LIMON          FAIR      25   1  35 N6        30.40F WCI  18
MONUMENT HILL  FAIR      23   0  36 SW8       30.45F WCI  14
CANON CITY     FAIR      36   0  21 W13       30.43S
WALSENBURG     NOT AVBL
TRINIDAD       FAIR      27   4  37 W15       30.45S WCI  15
$$

COZ042>045-048>051-090-091-101100-
...NORTHEAST COLORADO...

CITY           SKY/WX    TMP DP  RH WIND       PRES   REMARKS
GREELEY ARPT   FAIR      18   7  62 SE5       30.40S WCI  11
AKRON          FAIR      33   2  26 W15       30.37S WCI  23
BURLINGTON     FAIR      29   5  36 W9        30.35S WCI  20
WRAY           FAIR      34   5  29 W12       30.33S WCI  25
YUMA           FAIR      30   5  34 W13       30.34F WCI  20
STERLING       FAIR      28   9  43 S8        30.36R WCI  20
HOLYOKE        FAIR      41   9  26 W10       30.31R
FORT MORGAN    FAIR      26   5  41 W14       30.38F WCI  14
$$

COZ086-089-092>099-101100-
...SOUTHEAST COLORADO...

CITY           SKY/WX    TMP DP  RH WIND       PRES   REMARKS
PUEBLO         FAIR      19   2  47 W6        30.43R WCI  11
LA JUNTA       FAIR      30   4  33 W16       30.40F WCI  19
LAMAR          FAIR      28   4  35 W12       30.38F WCI  18
SPRINGFIELD      N/A     25   4  40 W9        30.38F WCI  15
$$




USA.gov is the U.S. government's official web portal to all federal, state and local government web resources and services.